Temp
27 27 26 26 26 27 28 28 29 29 28 27 26 24 24 23 23 25 24 24 24 24 23 24 24 24 23 22 23 24 24 26 27 27 27 27 27 27 27 27 27 27 27 27 27 26 26 26 26 25 25 25 24 24 24 24 23 23 23 24 24 24 23 23 22 23 23 23 22 22 22 23 23 23 22 23 22 22 23 22 22 22 22 23 23 23
27 26 25 27 27 28 28 28 29 28 28 28 26 24 24 23 23 24 24 24 24 24 23 24 24 24 23 23 23 23 23 25 27 27 27 27 27 27 27 27 27 27 27 27 27 26 26 26 26 25 25 25 24 24 24 24 24 24 24 24 24 24 23 23 23 23 23 23 23 23 23 23 24 23 23 23 23 23 23 23 23 22 23 23 23 23
26 25 26 27 27 26 27 28 28 28 28 27 25 24 23 23 23 23 24 24 24 24 23 23 24 23 23 23 23 23 23 24 26 27 27 27 27 27 27 27 27 27 27 27 26 26 26 26 25 25 25 25 25 24 24 24 24 24 24 25 24 24 24 24 24 24 24 24 24 24 24 24 24 24 24 24 24 23 23 23 23 23 23 23 23 23
23 25 27 27 26 26 27 27 28 28 28 27 25 24 22 23 23 22 23 24 24 24 23 23 23 23 23 23 23 23 23 23 24 26 27 27 27 27 27 27 27 27 27 27 26 26 26 26 25 25 25 25 25 25 24 24 24 24 24 25 24 24 24 24 24 24 24 24 24 24 24 24 24 24 24 24 23 23 23 23 23 23 23 23 23 23
24 26 28 27 26 27 27 27 28 27 27 26 26 25 23 24 25 23 23 24 24 24 24 24 22 22 23 23 23 23 23 23 24 25 27 27 27 27 27 27 27 27 27 27 26 26 26 25 25 25 25 25 25 25 24 24 25 24 25 25 25 24 24 25 25 24 25 24 24 24 24 24 24 24 24 23 23 23 22 23 23 23 23 23 23 23
26 27 27 27 27 27 27 27 27 27 25 25 26 27 25 25 25 24 24 24 22 22 24 24 21 21 22 23 23 23 23 23 24 25 26 26 27 27 27 27 27 27 27 27 26 26 26 26 25 25 25 25 25 25 25 25 25 25 25 25 25 24 24 25 25 24 24 24 24 24 24 24 23 23 23 23 23 23 22 23 23 23 23 23 23 23
27 27 27 28 27 27 27 26 27 28 25 23 26 28 27 26 25 24 24 24 21 21 24 25 22 21 21 22 24 23 23 23 24 25 25 26 26 26 27 27 27 27 27 27 27 26 26 26 25 25 25 25 25 25 25 25 25 25 25 25 25 25 24 24 24 24 24 24 24 24 24 24 24 23 24 24 24 23 23 23 23 23 23 23 23 23
27 28 27 27 27 27 26 25 27 29 26 24 27 28 27 26 24 24 25 23 22 22 23 24 23 21 21 22 24 23 23 23 24 24 25 25 26 26 26 27 27 27 27 27 26 26 26 26 25 25 25 25 25 25 25 25 25 25 25 25 25 25 25 25 24 24 24 24 24 24 24 24 24 24 24 24 24 24 23 23 23 23 23 23 23 23
28 28 28 28 27 26 26 26 28 29 27 27 29 28 27 27 26 26 26 24 23 23 21 22 23 22 21 22 23 23 23 23 23 24 25 25 25 25 26 26 26 27 27 27 26 26 26 26 26 25 25 25 25 25 25 25 25 25 26 25 25 25 25 25 25 25 25 25 24 24 24 24 24 24 24 24 24 24 24 23 23 23 23 23 23 23
28 28 29 28 27 27 27 28 29 29 29 29 29 27 26 26 26 26 25 24 23 22 21 21 22 21 21 21 22 22 22 23 24 25 25 25 25 25 25 26 26 27 27 27 26 26 26 26 26 26 26 25 25 25 25 25 25 25 25 26 25 25 25 25 25 25 25 25 25 24 24 24 24 24 24 24 24 24 24 23 23 23 23 23 23 23
27 28 29 29 28 29 29 29 28 29 30 29 28 25 24 24 24 24 23 23 22 22 21 22 22 22 21 21 22 22 23 24 24 25 25 25 25 25 25 26 26 25 26 27 26 26 26 26 26 26 26 25 25 25 25 25 25 25 25 25 25 25 25 25 25 25 25 25 25 25 25 25 25 25 24 24 24 24 24 24 23 23 23 23 23 23
27 28 29 30 30 30 30 29 29 29 30 29 28 25 23 22 22 22 21 22 22 21 22 23 23 22 21 22 23 24 25 25 25 25 25 25 25 25 24 24 23 23 25 26 26 26 26 26 26 26 25 25 25 25 25 25 24 25 25 25 25 25 25 25 25 25 25 25 25 25 25 25 25 25 25 25 24 24 24 24 24 23 23 23 23 23
27 29 29 30 31 31 30 28 28 28 29 29 27 24 22 21 21 21 20 21 21 22 23 24 23 22 21 23 24 25 25 25 25 25 25 25 25 24 23 22 23 24 25 26 26 26 25 25 25 25 25 25 25 25 25 25 24 24 25 25 25 25 25 25 25 25 25 25 25 25 25 25 25 25 25 25 25 24 24 24 24 24 23 23 23 23
25 28 29 29 30 31 30 28 26 26 27 27 25 23 21 20 20 20 20 21 21 22 23 24 24 22 22 23 24 25 26 25 25 25 25 25 24 23 22 23 24 25 25 26 26 26 25 25 25 25 25 25 25 25 25 24 24 24 24 25 25 25 25 25 25 25 25 25 25 25 25 25 26 26 25 25 25 25 25 24 24 24 24 24 24 24
22 24 27 29 29 30 31 30 28 28 27 27 28 25 22 21 21 21 21 21 21 21 22 23 23 21 21 23 23 24 26 25 25 24 24 24 23 22 22 23 24 24 25 25 25 25 25 25 26 25 25 25 25 25 25 25 24 24 24 25 25 25 25 25 25 25 25 25 25 25 25 25 25 25 25 25 25 25 25 25 25 24 24 24 24 24
22 22 28 30 29 30 31 30 31 30 26 27 29 26 23 23 24 22 22 22 21 21 21 22 21 21 22 23 24 24 25 25 24 24 24 23 22 22 22 23 23 24 24 24 24 25 24 24 25 25 25 25 25 25 25 25 25 24 24 25 25 25 25 25 25 25 25 25 25 25 25 25 25 25 25 25 25 25 25 25 25 25 25 25 25 25
21 23 29 30 29 31 31 31 32 30 27 26 26 25 25 27 27 23 21 22 22 21 21 21 21 21 23 23 24 25 24 24 24 24 24 23 22 22 22 23 23 23 24 24 24 24 22 23 24 25 25 25 25 25 25 25 25 25 25 25 25 25 25 25 25 25 25 25 25 25 25 25 25 25 25 25 25 25 25 25 25 25 25 25 25 25
23 23 28 29 29 30 30 30 32 31 29 27 25 26 28 28 28 25 22 22 22 21 21 21 21 21 21 22 23 24 23 22 23 23 23 22 22 22 22 22 23 23 23 23 23 23 22 22 24 25 25 26 25 25 25 25 25 25 25 25 25 25 25 25 25 25 25 25 25 25 25 25 25 25 25 25 25 25 26 26 26 25 25 25 25 25
24 23 26 29 29 29 30 30 29 29 31 29 28 29 28 24 24 24 22 21 21 20 20 21 21 21 21 21 22 23 22 22 22 22 23 22 22 22 22 22 22 22 22 23 23 23 22 22 23 24 24 25 26 25 25 25 25 25 24 25 25 25 25 25 25 25 25 25 25 25 25 25 25 25 25 25 25 25 25 26 25 25 25 25 25 25
25 23 24 28 30 29 30 29 26 26 29 30 30 30 28 25 24 23 23 22 21 21 20 20 20 21 21 21 22 22 22 22 22 22 22 22 22 22 22 22 22 22 22 22 22 23 22 22 22 23 24 24 25 25 25 25 25 24 24 24 24 24 24 24 24 24 25 25 25 25 25 25 25 25 25 25 25 25 25 25 25 25 25 25 25 25
25 23 22 26 29 27 27 27 27 27 28 28 27 26 26 26 25 25 24 23 21 21 20 20 21 21 21 21 22 22 22 22 22 22 21 21 21 22 22 21 21 21 22 22 22 22 22 22 22 23 23 23 24 24 25 25 25 25 24 24 24 24 24 24 24 24 24 24 25 25 25 25 25 25 25 25 25 25 25 25 25 25 25 25 25 25
25 24 22 24 25 25 26 28 29 30 30 29 27 26 26 26 24 23 22 22 22 21 21 21 21 20 21 21 22 22 22 22 22 22 21 20 20 20 21 21 21 21 22 22 22 22 22 22 22 22 22 23 23 23 24 24 24 24 24 24 24 24 24 24 24 24 24 24 24 24 25 25 25 25 25 25 25 25 25 25 25 25 25 25 25 25
25 24 22 22 23 24 26 28 27 28 30 30 29 28 28 27 25 23 22 22 22 21 21 21 21 20 21 21 22 22 21 21 21 21 20 20 20 20 20 21 21 21 22 22 21 21 21 21 21 21 21 22 22 22 23 23 23 24 24 24 24 24 24 24 24 24 24 24 24 24 24 25 25 25 25 25 25 25 25 25 25 25 25 25 25 25
25 23 22 22 24 26 28 28 28 28 30 29 28 28 28 27 26 25 24 23 22 21 21 21 21 21 21 21 21 21 21 21 20 20 20 20 20 20 20 20 20 20 20 21 21 21 21 21 20 20 20 21 21 21 22 23 24 23 23 24 24 24 24 23 23 23 23 23 23 24 24 24 24 25 25 25 25 25 25 25 25 25 25 25 25 25
24 22 22 22 22 23 25 26 27 27 28 27 27 28 27 27 26 25 24 23 22 21 21 21 21 20 21 21 21 21 21 20 20 20 20 20 20 20 20 20 20 19 20 20 20 21 20 20 20 20 20 20 21 22 22 22 22 22 21 22 23 23 23 23 23 23 23 23 23 23 24 24 24 24 24 25 25 25 25 25 25 25 25 25 25 25
24 23 22 21 21 21 21 22 23 24 25 26 26 27 27 27 26 25 23 22 22 21 21 21 20 20 20 21 21 21 21 20 20 20 20 20 20 20 20 20 20 20 20 20 20 20 19 19 19 20 20 20 21 22 21 21 21 20 21 21 21 21 22 23 23 23 23 24 23 23 24 24 24 24 24 24 24 24 25 25 25 25 25 25 25 25
25 23 22 22 22 22 22 23 24 24 24 24 25 27 27 26 26 25 23 22 22 21 21 21 20 20 20 21 21 21 21 20 20 20 20 20 20 20 21 20 20 20 19 19 20 19 19 19 19 19 19 20 20 21 21 20 20 20 21 21 21 21 22 23 22 22 22 23 23 23 23 24 24 24 24 24 24 24 24 24 25 25 25 25 25 25
25 23 22 23 23 22 23 24 25 25 24 24 25 26 27 27 26 25 23 23 22 21 21 21 21 20 20 21 21 21 21 21 20 20 20 20 20 21 21 21 20 20 19 19 19 19 19 19 19 19 19 20 20 20 20 20 20 20 20 20 20 21 22 22 22 21 22 23 23 23 23 23 23 23 23 24 24 24 24 24 24 25 25 25 25 25
24 22 22 23 23 24 24 24 25 26 25 25 25 25 26 26 26 25 23 23 23 23 21 21 21 21 21 21 21 21 21 21 20 21 21 20 21 21 21 20 20 20 19 19 19 19 19 19 19 19 19 20 20 20 20 20 20 20 20 20 20 20 21 21 21 21 22 22 22 21 22 23 23 23 23 23 23 23 24 24 24 24 25 25 25 25
22 22 22 23 23 24 25 24 25 26 25 25 25 25 25 25 25 24 23 23 23 23 22 21 21 21 22 22 21 22 21 21 21 21 21 21 21 21 21 20 20 20 19 19 19 19 19 19 19 19 20 20 20 20 20 20 19 19 19 19 20 20 20 21 21 20 21 21 21 20 20 21 22 22 23 23 23 23 23 23 24 24 24 25 25 25
22 21 21 22 23 23 24 25 25 25 25 25 25 25 25 24 24 23 23 22 22 21 21 21 21 21 22 22 22 22 21 21 21 20 20 21 21 20 21 20 20 20 20 19 19 19 19 19 19 19 19 19 19 19 19 19 19 19 19 19 19 19 19 20 20 20 20 20 20 20 20 20 21 21 21 22 22 22 22 23 23 23 23 23 25 25
22 21 21 22 22 22 23 24 24 25 26 24 24 25 25 24 23 23 23 23 22 21 21 21 20 21 22 22 22 21 21 21 20 20 20 20 20 20 20 20 20 20 20 20 20 19 19 19 19 19 19 19 19 19 19 19 19 19 19 19 18 18 19 19 19 19 19 19 19 20 20 20 20 20 21 21 21 21 21 21 22 22 21 21 23 25
21 21 21 21 21 21 22 23 23 24 24 22 23 24 24 24 24 24 24 23 22 22 22 21 21 22 22 22 21 21 21 21 21 21 20 20 20 20 20 19 19 20 20 20 20 19 19 19 19 19 19 19 19 19 19 19 19 19 19 19 19 19 19 19 18 18 19 19 19 19 20 20 20 20 20 20 20 20 21 21 21 21 20 20 21 22
21 21 20 20 21 21 22 23 23 22 21 22 24 24 24 25 26 24 23 23 23 23 23 23 22 22 22 22 22 21 21 21 21 21 20 20 20 19 19 19 19 19 20 20 19 19 18 18 19 19 19 19 19 20 20 20 19 19 19 19 19 19 19 19 19 19 19 19 19 20 20 20 20 20 20 20 20 20 20 20 20 20 20 20 20 21
22 21 20 20 21 21 21 22 21 21 21 23 24 24 23 24 25 24 23 23 23 24 23 23 22 22 22 22 22 21 21 21 21 21 20 20 20 19 19 19 19 19 19 19 19 18 18 18 19 19 19 19 19 20 20 20 20 20 20 20 20 20 20 19 19 19 19 19 19 20 19 19 20 20 20 20 20 20 20 20 20 19 19 20 20 21
22 21 20 20 20 20 21 21 20 21 22 24 25 24 23 24 24 23 23 23 23 23 23 22 22 22 22 22 21 21 21 20 20 20 20 19 19 19 19 19 19 19 19 18 18 17 17 18 19 19 19 19 19 20 20 20 20 19 19 19 19 19 19 19 19 19 19 19 19 19 19 20 20 20 20 19 19 19 20 20 20 20 19 19 20 20
22 21 21 20 20 20 20 20 21 21 22 23 25 24 23 22 23 23 22 22 22 23 23 22 21 21 21 21 21 20 20 20 19 19 19 19 19 19 19 19 19 19 18 18 17 17 18 18 19 19 19 19 19 19 19 19 19 19 19 19 19 19 19 19 19 19 19 19 19 20 20 20 20 20 20 20 20 19 20 20 20 20 20 19 19 20
21 21 21 20 19 20 20 20 21 21 21 22 23 23 22 21 21 23 23 22 22 22 22 22 21 21 21 20 20 20 20 20 19 19 19 19 19 19 19 18 18 18 17 17 17 17 18 18 18 19 19 19 19 18 19 19 19 19 19 18 18 18 18 18 18 19 19 19 19 19 20 20 20 20 20 20 20 20 20 20 20 20 20 19 20 20
20 20 21 21 20 20 20 20 20 20 21 22 23 23 22 20 21 23 23 21 22 22 22 21 21 21 21 20 20 21 21 19 18 18 19 19 19 19 18 18 17 17 17 17 17 17 18 18 19 19 19 19 18 18 19 19 19 19 18 18 18 18 18 18 18 18 19 19 19 19 19 20 20 20 19 20 20 20 21 21 20 20 20 19 20 20
21 20 21 21 20 20 20 20 20 20 21 22 22 23 21 20 22 23 21 21 22 22 22 22 21 20 21 21 21 21 20 19 18 18 18 19 18 18 18 17 17 17 17 17 17 17 18 18 18 18 18 18 18 18 18 19 19 18 18 17 18 17 17 17 18 18 18 18 18 19 19 19 20 19 19 19 20 20 20 21 21 20 20 20 20 20
20 20 19 20 20 20 20 20 20 20 22 22 22 22 21 21 23 22 21 21 21 21 21 21 20 20 20 20 19 19 18 18 18 18 18 18 18 17 17 17 17 17 16 16 17 17 18 18 17 17 17 17 17 17 18 18 18 17 17 17 17 17 16 17 17 18 18 18 18 18 18 19 19 19 19 19 19 20 20 20 20 20 20 20 20 20
20 19 19 19 20 19 20 20 20 20 21 21 21 21 22 22 23 22 20 20 20 20 21 20 19 19 19 18 17 16 17 17 18 18 18 18 17 16 16 16 16 16 16 16 17 17 17 17 16 16 16 16 17 17 17 17 17 16 16 16 16 16 16 17 17 17 18 18 18 18 18 18 18 19 19 19 19 19 19 19 19 19 19 19 19 20
20 20 19 19 19 19 19 20 20 20 21 20 21 22 22 22 22 21 19 18 19 20 20 19 19 19 18 17 16 16 16 17 17 17 16 16 16 16 16 16 16 16 16 16 17 17 17 16 16 16 16 16 16 16 16 16 16 16 16 16 16 16 16 16 17 17 17 17 17 18 18 18 18 18 18 18 18 18 19 19 19 19 19 19 19 19
19 20 19 19 19 19 20 20 20 21 20 19 20 22 22 20 20 20 19 19 19 19 19 19 19 19 18 17 17 16 17 17 16 16 16 16 16 15 15 15 15 15 16 16 16 17 17 16 16 15 16 15 15 15 16 16 16 15 15 15 15 15 16 16 16 17 17 17 17 17 17 17 18 18 18 18 18 18 18 18 18 19 19 19 18 18
19 19 19 20 20 19 20 20 20 20 19 18 19 20 20 19 18 19 19 19 18 18 18 18 18 18 18 18 17 17 17 17 16 16 16 15 15 14 14 15 15 15 16 16 16 16 16 15 15 15 15 15 15 15 15 15 15 15 15 15 15 15 15 15 16 16 16 16 16 16 17 17 17 18 18 18 18 18 18 18 18 18 18 18 18 18
19 18 18 20 20 19 19 19 19 19 19 18 19 19 19 19 19 18 19 19 18 18 18 17 18 18 18 18 17 17 17 17 16 16 15 15 14 14 14 14 15 15 16 16 16 16 15 15 15 15 15 15 14 15 15 14 15 15 14 15 15 15 15 15 15 15 15 16 16 16 16 16 17 17 17 17 17 17 18 18 18 18 18 18 17 17
19 19 19 20 20 19 20 20 18 18 18 17 18 19 19 19 19 19 19 18 18 18 18 18 18 18 17 17 16 16 16 16 16 15 15 14 14 13 13 14 14 15 16 16 15 15 15 15 15 15 14 14 14 14 14 14 14 14 14 15 15 15 15 15 15 15 15 15 15 15 16 16 16 16 17 17 17 17 17 18 18 18 17 17 17 17
19 19 19 19 19 19 19 18 17 17 17 16 17 17 18 18 18 18 18 18 18 18 18 17 17 17 17 17 16 15 15 15 15 15 14 14 13 13 13 13 14 15 15 16 15 15 15 15 15 14 14 14 14 14 14 14 14 14 14 14 14 15 15 15 15 15 15 15 15 15 15 15 16 16 16 17 17 17 17 17 17 17 17 17 16 16
18 19 19 18 18 18 18 17 17 18 18 17 16 16 16 17 17 17 18 19 19 19 18 18 17 17 17 16 16 15 15 15 14 14 14 13 13 12 13 14 14 15 15 15 15 16 15 15 14 14 14 14 14 14 14 13 13 13 13 13 14 14 14 15 15 15 15 15 15 15 15 15 15 16 16 16 17 17 17 17 17 17 17 16 16 16
18 19 18 18 19 19 18 17 17 18 18 16 15 15 15 16 17 17 17 18 19 19 19 19 18 17 16 16 16 16 16 15 14 13 14 13 12 13 13 14 15 15 15 15 15 15 15 14 14 14 14 13 13 13 13 13 13 13 13 13 13 13 14 14 14 14 14 14 14 15 15 15 15 15 16 16 16 16 16 17 17 16 16 16 16 16
17 18 18 18 18 18 17 16 15 16 16 15 14 15 14 15 16 17 16 17 17 17 17 18 18 17 16 16 15 16 15 14 13 13 13 13 13 14 15 15 15 15 15 15 15 15 14 14 14 14 14 13 13 13 13 12 12 12 12 12 13 13 13 13 13 13 13 13 14 14 14 15 15 15 15 16 16 16 16 16 16 16 16 16 16 16
Height
763 773 778 778 778 776 775 774 773 775 778 783 788 795 799 804 806 802 800 798 796 808 815 812 815 818 818 817 812 811 811 808 808 808 809 809 810 811 812 812 814 815 814 813 816 818 820 822 823 825 827 829 831 833 835 836 838 840 841 842 844 845 847 848 849 851 852 852 853 854 854 855 857 859 860 861 862 863 864 866 866 867 868 869 870 871
764 777 778 772 772 771 772 772 771 774 777 780 787 796 800 804 806 800 799 800 796 805 816 813 816 820 818 818 814 813 816 811 806 808 809 808 808 809 810 812 812 813 812 813 816 818 820 822 823 825 827 828 830 831 834 835 837 840 841 842 844 845 847 848 849 850 851 852 853 853 854 855 856 858 859 860 862 863 864 865 866 867 868 869 869 870
774 778 773 767 769 771 771 771 772 776 778 783 788 796 804 805 806 805 801 800 797 804 817 816 817 821 818 817 817 816 817 812 805 804 804 805 807 808 809 810 811 812 813 814 815 817 820 821 823 825 827 828 829 830 833 835 837 839 841 842 843 845 846 847 849 850 852 852 853 854 854 855 856 858 859 860 861 862 863 864 865 866 867 868 869 870
782 774 765 765 768 772 774 773 774 777 778 784 789 795 804 802 802 809 807 802 799 801 810 814 818 822 820 819 819 816 815 811 806 803 800 801 804 805 805 806 808 811 813 814 815 817 819 821 823 825 826 827 828 830 832 834 836 838 840 842 843 844 846 847 849 850 852 853 854 855 856 857 857 858 860 861 862 863 863 864 865 866 867 868 869 870
777 766 760 764 768 771 775 776 777 781 782 785 786 789 798 797 794 800 803 802 803 804 804 810 824 827 821 823 822 815 815 814 808 804 802 802 801 802 803 804 805 807 810 813 815 816 818 821 823 824 826 827 828 830 831 833 835 837 839 841 843 844 846 847 848 850 852 854 855 856 857 858 859 859 860 861 862 863 863 864 865 865 867 868 869 870
771 760 758 765 769 771 776 778 777 780 784 786 783 780 785 790 791 796 800 802 814 820 807 806 828 834 823 822 821 816 817 816 810 807 806 804 803 803 805 805 805 805 807 809 812 815 817 820 822 824 825 827 828 829 830 832 834 836 839 841 843 844 846 847 849 850 852 853 854 855 856 857 858 859 860 861 861 862 863 864 865 866 867 868 869 870
765 757 758 764 768 771 776 779 775 774 785 789 777 771 777 784 791 798 798 803 818 823 807 801 821 835 830 823 817 816 819 817 811 809 807 805 805 805 805 805 805 805 806 809 811 813 816 819 821 824 825 825 826 828 830 832 833 835 838 840 843 844 845 847 849 850 852 853 854 855 856 857 858 859 859 861 861 862 863 865 866 866 867 868 868 869
760 758 762 764 767 772 777 778 772 771 783 784 767 766 777 782 790 795 794 801 809 810 810 806 811 827 833 823 814 815 821 819 814 812 809 806 806 805 805 804 804 804 805 809 811 812 814 817 819 822 824 824 825 828 830 832 833 835 837 840 842 844 846 847 849 850 851 853 854 855 856 857 858 858 859 861 862 863 864 865 866 866 867 868 868 869
757 761 763 763 769 773 772 770 767 767 775 771 761 765 772 777 785 787 790 799 800 807 824 819 810 825 833 821 814 817 822 821 816 812 809 807 806 806 805 805 804 804 804 806 809 811 813 815 818 820 822 824 825 827 829 831 832 834 836 839 841 843 845 847 848 850 851 852 854 855 856 857 858 859 860 861 862 863 864 864 865 866 867 868 868 869
756 756 754 758 767 767 762 760 760 764 767 761 760 769 774 781 787 788 794 800 799 809 826 821 812 826 834 823 819 822 821 818 814 809 807 806 805 806 806 805 805 805 805 805 806 808 811 813 816 819 821 823 825 827 829 831 832 834 836 838 840 843 844 846 848 849 851 852 853 855 856 857 858 859 860 861 861 862 863 864 865 866 867 868 868 869
753 748 747 752 755 754 752 755 755 757 759 757 765 778 787 795 797 799 804 804 808 816 817 812 808 817 829 823 815 814 809 806 808 808 807 805 805 806 807 806 806 807 806 806 806 808 810 812 815 818 820 823 825 827 829 831 832 834 835 837 839 842 844 845 847 848 850 851 853 854 855 856 857 858 859 860 861 862 863 864 865 866 866 867 868 869
753 751 750 744 741 743 748 753 754 753 754 758 770 781 796 810 810 815 822 815 818 820 807 802 803 812 826 819 805 801 796 795 801 804 805 805 805 806 809 810 809 808 807 807 807 809 810 813 815 817 820 822 825 827 829 830 832 833 835 837 839 841 843 844 846 848 849 850 852 853 854 856 857 858 859 860 861 862 862 863 864 865 866 867 868 869
755 751 747 740 736 737 748 758 759 759 757 762 775 784 806 829 830 837 846 834 822 813 799 796 801 814 820 807 797 795 793 793 795 797 800 802 804 808 812 813 810 806 806 806 807 809 810 812 814 816 819 822 824 825 827 829 831 832 834 836 838 840 842 844 845 847 849 850 851 853 854 855 856 857 858 859 860 861 862 863 864 865 866 867 867 868
762 753 745 745 741 734 743 758 764 767 766 768 777 786 807 831 843 851 852 838 824 810 796 792 802 816 813 800 797 792 788 789 790 793 798 800 805 810 812 811 808 805 803 804 805 807 808 809 811 813 817 820 822 824 826 828 829 831 833 835 836 838 841 843 845 847 849 850 852 853 854 855 856 857 858 858 859 860 861 862 863 864 865 866 867 867
777 770 751 745 744 735 738 747 750 757 764 766 764 774 793 807 823 837 834 829 826 817 805 799 808 821 815 802 796 788 784 786 788 792 797 801 805 809 810 810 808 806 805 804 805 806 807 808 809 812 814 817 820 822 824 826 828 829 831 833 835 837 840 842 845 847 848 850 852 853 854 855 856 856 857 858 859 860 861 862 863 864 865 865 866 867
778 773 747 737 736 733 736 737 735 746 764 765 757 769 785 782 787 804 807 805 809 817 819 814 817 819 808 798 792 787 787 789 791 794 798 804 807 808 811 811 808 807 807 806 806 806 807 808 810 812 814 816 818 820 822 824 826 827 829 831 834 836 839 841 844 846 848 849 851 852 853 854 855 856 857 857 858 859 860 861 862 863 864 865 866 867
778 768 743 736 735 730 733 733 730 741 758 765 766 772 772 762 766 786 799 794 796 818 828 822 822 817 806 802 796 791 795 796 797 798 801 806 807 809 811 810 808 807 806 807 806 806 807 808 811 813 814 817 818 819 821 822 823 825 827 830 833 835 838 840 842 844 846 848 849 851 852 853 854 855 856 857 858 859 859 860 861 862 863 864 866 867
773 767 746 740 742 734 728 729 730 732 741 759 770 765 758 762 765 776 799 808 810 829 834 823 826 824 816 815 805 800 807 807 805 803 804 806 807 808 810 808 807 806 805 807 806 805 806 807 809 811 812 815 817 818 820 820 822 824 826 829 831 834 836 838 840 842 844 845 847 849 850 852 853 854 855 856 857 858 859 860 860 861 863 864 865 866
765 770 754 741 744 738 727 732 742 739 735 744 754 751 756 775 779 776 795 811 819 838 841 829 827 824 819 819 812 810 814 812 809 806 805 808 807 808 808 807 806 805 805 806 805 805 806 806 807 809 811 813 815 817 818 820 822 824 827 829 831 832 833 835 838 839 841 843 845 847 848 850 851 852 854 855 856 857 858 859 860 861 862 863 864 865
761 771 764 743 739 739 734 740 753 753 744 740 745 750 755 766 773 775 784 793 809 834 842 836 833 824 817 816 813 813 812 808 808 807 806 806 806 807 807 806 806 805 804 805 805 805 805 806 807 808 810 812 813 815 817 819 822 824 827 829 831 833 834 836 838 839 840 842 843 845 846 847 849 850 852 853 854 855 856 858 859 860 861 862 863 864
759 768 769 751 740 744 748 748 750 753 751 750 754 759 761 761 764 771 779 784 798 822 836 840 838 826 815 812 810 809 809 806 806 807 808 808 807 808 808 807 806 805 804 804 804 804 804 804 807 808 810 811 812 814 816 818 821 824 827 829 830 832 834 836 837 839 840 840 841 842 843 845 846 847 849 851 852 854 855 856 858 859 861 861 863 864
762 767 770 762 753 754 754 746 742 743 744 748 754 758 761 763 766 779 792 792 792 806 821 827 831 827 817 809 806 806 807 807 806 807 811 812 812 813 811 808 808 806 804 803 802 803 803 804 807 809 810 811 812 814 816 818 821 824 828 830 832 833 833 834 835 836 837 838 840 841 842 843 845 846 847 849 850 852 853 855 856 858 860 861 862 863
760 767 770 766 761 759 753 745 743 742 739 742 749 754 758 760 764 775 791 796 795 801 807 811 821 825 816 806 805 806 806 807 808 809 812 815 814 814 814 812 809 807 804 802 802 803 804 805 808 809 810 811 812 813 815 817 819 821 824 827 830 832 833 834 834 834 836 837 839 841 842 843 844 845 846 847 848 850 851 853 855 857 858 859 861 862
760 772 774 768 763 756 747 742 741 740 740 746 751 752 756 760 760 764 772 783 795 803 805 811 824 826 814 806 805 807 806 808 809 810 813 817 814 812 815 814 811 809 806 804 804 805 806 808 809 810 811 811 812 814 815 816 818 819 821 824 827 830 831 833 833 834 836 837 839 840 842 843 845 846 847 847 847 848 850 852 853 855 857 858 860 861
765 778 779 777 777 772 764 759 755 748 748 755 757 754 755 759 761 765 770 778 793 803 801 807 824 826 813 807 807 807 808 810 811 811 812 816 815 813 813 814 812 811 809 807 806 806 808 810 811 811 810 809 810 813 815 817 819 821 824 827 828 830 830 830 830 832 834 835 837 838 840 842 843 845 845 846 847 847 849 850 852 854 855 857 858 859
767 777 779 781 788 791 790 785 775 766 761 760 760 756 756 760 761 765 774 780 791 800 800 804 820 823 813 810 810 809 809 811 812 812 812 813 814 813 812 813 812 812 812 810 808 808 809 810 812 812 811 810 810 811 815 818 821 824 827 828 829 830 830 828 828 830 831 833 834 837 839 839 839 840 841 844 845 847 848 849 850 852 853 855 856 858
767 775 779 782 783 786 787 780 771 769 768 765 763 759 758 762 762 765 773 779 785 797 805 806 811 816 816 814 813 811 811 812 812 812 813 813 813 813 812 812 812 812 812 811 811 811 812 813 814 815 814 813 811 812 814 818 822 826 828 827 828 829 828 827 828 830 831 832 833 836 838 837 836 836 838 841 843 845 847 848 849 850 852 853 855 856
767 777 780 779 779 779 779 774 767 766 768 767 764 761 760 761 763 766 771 774 779 793 807 808 804 810 815 812 811 812 811 811 812 812 812 813 812 812 812 811 812 813 812 812 813 813 814 816 817 818 817 815 814 815 817 819 823 825 826 825 826 826 825 826 828 829 829 830 832 835 836 836 836 837 838 840 842 843 845 846 848 849 850 852 853 854
773 781 780 778 777 775 774 773 769 765 766 768 766 763 761 762 763 765 772 777 776 779 791 801 803 806 807 807 808 809 808 809 811 810 811 811 812 812 812 813 814 814 814 813 814 815 815 816 817 818 819 818 817 819 819 821 822 823 823 823 824 824 824 825 827 828 827 827 830 834 836 835 836 837 838 839 840 842 843 844 846 848 849 850 851 852
777 785 785 782 779 773 771 771 769 766 766 767 768 766 764 766 766 768 775 781 778 777 784 794 803 805 802 802 804 804 805 807 809 810 811 812 813 813 814 815 816 816 816 815 815 815 816 817 818 818 819 820 819 820 820 821 821 822 822 823 824 825 824 825 826 827 827 827 830 835 837 835 835 836 838 838 839 841 843 844 844 846 848 850 850 851
777 789 790 784 782 780 774 770 768 769 769 768 769 768 767 770 772 775 779 782 785 791 794 796 806 811 803 798 801 803 805 808 810 812 813 814 815 815 815 817 818 818 818 817 816 817 817 817 819 819 820 821 821 821 821 821 822 823 823 824 825 826 826 825 826 827 828 830 832 836 837 835 834 836 837 838 839 841 843 844 843 844 848 851 851 850
780 791 792 787 789 788 780 776 774 769 768 770 772 772 771 773 776 778 779 780 785 795 801 804 810 810 801 797 801 804 806 809 812 813 813 815 818 817 817 819 819 820 820 819 819 820 820 819 820 820 821 822 822 822 823 823 824 825 826 827 829 830 829 828 829 830 831 832 833 834 834 833 833 835 836 837 839 840 842 843 842 842 848 853 853 850
786 790 794 796 798 792 785 783 779 772 778 785 781 775 774 774 774 776 778 778 780 785 794 799 799 796 794 796 801 805 808 810 813 812 812 815 818 819 819 820 821 822 821 821 821 822 823 822 822 823 824 824 824 825 825 826 827 828 829 830 832 833 832 832 833 833 832 833 833 833 833 833 833 834 835 836 837 838 840 841 841 843 849 855 854 850
789 790 798 802 799 797 792 784 782 789 799 795 780 773 774 771 769 774 780 781 780 777 779 781 784 787 791 795 800 805 808 809 811 812 812 813 816 819 820 821 822 823 822 822 823 824 825 825 825 826 826 826 827 827 828 829 830 831 833 833 834 835 835 835 836 835 834 834 833 833 833 834 834 834 836 836 836 836 838 840 844 847 851 852 850 847
790 791 799 802 801 801 795 789 796 807 803 786 774 773 773 769 767 773 780 782 780 778 776 780 785 788 790 794 798 802 806 809 811 813 814 814 815 817 820 822 823 824 824 825 826 827 828 828 828 828 828 829 830 830 830 832 833 834 835 835 836 836 837 837 837 836 836 835 833 832 833 834 835 835 837 838 838 838 838 840 845 848 850 849 845 843
789 792 798 802 804 802 800 802 809 807 793 779 774 774 773 772 772 778 786 788 783 779 780 784 789 789 790 796 799 801 805 809 813 816 817 816 816 816 819 822 823 824 826 827 828 828 829 829 829 830 830 831 831 831 832 833 834 835 835 836 837 838 838 838 838 838 839 838 836 835 834 835 837 837 839 841 842 842 842 842 844 846 848 847 843 841
787 791 796 803 807 807 808 809 804 799 794 786 780 778 780 782 779 779 789 793 787 781 781 785 791 794 794 798 801 803 806 812 819 823 820 818 819 819 820 822 823 825 826 827 829 830 830 830 831 831 832 833 833 834 834 835 835 834 835 836 837 838 839 839 840 841 841 841 841 840 839 839 840 840 841 843 843 844 844 844 843 844 846 846 845 843
787 791 793 801 809 810 810 809 806 806 804 793 784 780 780 784 781 776 785 795 790 784 783 784 790 795 796 800 804 805 808 818 828 827 821 821 822 821 822 824 825 826 828 828 829 830 831 832 832 833 834 834 835 836 837 836 836 835 835 836 837 839 840 840 841 842 843 843 844 844 844 843 843 842 843 843 843 843 843 843 843 843 844 846 846 844
792 794 793 799 808 810 809 811 814 813 803 790 784 780 779 783 779 774 789 803 795 785 786 787 790 793 794 797 801 802 809 822 830 826 821 821 822 822 823 825 826 828 829 830 830 831 832 833 834 835 836 836 838 839 839 839 838 837 837 838 839 840 841 842 843 843 844 845 845 846 846 845 845 844 844 844 843 843 843 843 842 843 844 846 844 841
797 797 798 803 810 812 812 813 814 810 798 788 783 781 780 779 774 783 805 810 793 785 788 789 791 795 796 797 799 802 809 817 820 820 819 820 822 823 823 824 826 828 829 830 832 832 833 835 835 836 838 838 840 841 841 841 840 840 841 841 840 841 842 844 845 845 845 845 845 846 846 846 846 845 845 845 844 844 843 843 842 842 843 843 841 838
804 805 807 809 810 811 812 814 814 807 795 787 784 782 779 777 781 796 806 798 786 786 789 789 793 796 798 802 805 808 813 813 813 816 818 819 822 824 825 825 827 828 829 831 832 833 834 836 837 838 840 841 841 842 842 843 843 843 844 843 843 844 844 845 846 846 846 846 846 846 846 846 846 846 846 846 845 844 844 843 842 841 841 840 839 837
809 811 813 812 812 813 812 813 816 809 795 786 785 781 778 783 791 796 792 787 787 788 788 792 796 797 799 806 811 812 813 814 818 821 821 821 823 824 825 827 828 829 831 832 833 834 835 837 839 840 841 842 843 843 843 844 844 845 845 845 845 846 846 846 846 846 847 847 847 847 847 847 847 847 847 847 846 845 844 843 842 841 840 839 838 837
807 811 816 815 814 816 816 816 819 813 797 788 787 783 782 788 790 787 785 788 788 786 787 793 795 795 799 806 812 814 812 814 822 827 827 827 825 824 825 827 828 830 832 833 834 836 836 838 840 841 842 843 843 844 844 844 845 846 846 846 846 846 846 846 846 846 846 846 847 847 847 847 847 847 847 847 846 846 845 844 843 841 840 840 839 838
805 809 814 813 811 814 816 815 812 804 795 791 790 787 787 789 787 784 786 788 788 787 789 791 792 794 796 800 806 811 813 816 821 824 827 828 826 824 826 828 829 831 832 834 836 837 838 839 841 842 844 844 844 845 845 845 846 846 846 846 846 846 846 846 845 845 845 845 846 846 846 847 847 847 847 846 846 845 844 843 843 842 841 840 839 839
805 804 806 806 805 808 810 806 800 796 794 793 791 788 788 788 786 785 786 787 789 790 790 792 794 796 796 798 801 806 812 817 820 821 823 825 826 826 827 829 830 832 833 835 837 839 840 841 842 844 845 845 846 847 847 847 848 848 847 847 846 846 846 845 845 845 844 844 845 845 845 845 845 845 845 845 844 844 843 843 842 842 841 841 840 839
803 801 802 802 802 805 804 801 798 798 797 795 792 790 790 788 788 787 786 788 791 792 792 794 796 798 801 803 804 807 811 813 816 818 821 823 825 827 828 830 832 833 834 836 838 839 841 842 843 844 845 846 847 848 848 849 849 848 848 847 847 846 846 846 846 845 845 845 844 844 844 844 844 844 844 844 844 843 843 843 842 842 841 840 840 839
802 800 801 801 803 806 805 802 801 802 802 800 797 794 791 790 790 789 789 790 791 792 794 796 796 799 804 806 809 815 818 816 816 818 820 822 825 827 828 830 832 834 835 836 838 839 841 842 843 844 845 846 848 848 848 849 848 847 848 847 847 847 846 846 846 846 845 845 844 844 844 843 843 843 842 842 842 842 842 842 842 841 841 840 839 839
803 800 802 805 806 807 807 805 805 805 804 803 802 799 798 797 795 792 791 791 792 793 795 796 797 800 802 805 810 818 824 826 824 821 820 823 825 827 829 831 832 834 835 836 837 838 839 840 842 843 844 845 846 847 847 847 847 847 847 846 846 846 846 846 846 845 845 845 844 844 843 843 842 842 841 841 841 841 842 841 841 841 841 840 839 838
804 802 805 809 809 809 809 808 806 804 804 805 805 804 803 801 799 797 795 794 794 796 797 798 800 801 802 805 809 813 820 825 824 821 822 824 826 828 829 830 831 833 834 835 837 837 838 839 841 842 843 845 845 846 846 846 846 847 846 846 846 845 845 845 845 845 845 845 844 844 843 842 842 841 841 840 840 840 841 841 840 840 840 840 839 839
806 806 809 811 811 811 812 812 810 808 810 812 811 808 806 804 802 802 801 798 797 798 799 801 802 804 805 807 809 812 817 820 821 821 822 824 825 827 828 829 831 832 833 834 836 836 837 839 840 841 843 844 844 845 845 846 846 847 847 847 846 845 845 845 844 844 844 844 844 843 843 842 842 841 841 840 840 840 840 840 840 840 839 839 839 839
808 809 809 810 812 813 812 812 812 812 813 815 813 810 809 807 805 805 806 805 804 803 802 802 804 806 807 808 809 810 813 816 818 819 821 823 824 825 826 828 829 831 832 833 834 835 836 838 839 840 842 843 844 844 845 846 846 847 847 847 846 846 846 845 844 844 844 844 843 843 842 842 841 840 840 840 839 839 839 839 839 839 839 839 838 838
Wind_Speed
3 3 3 4 6 5 5 6 6 3 3 7 6 5 7 4 3 5 7 10 11 8 6 6 7 8 10 7 4 2 5 6 14 13 11 12 11 10 10 10 10 9 11 16 23 26 26 27 27 27 26 26 25 24 25 25 25 24 23 22 21 21 21 20 20 19 18 18 16 14 15 16 17 17 16 16 15 14 15 14 13 12 11 9 8 7
3 4 6 6 7 6 5 6 5 2 1 4 5 5 5 4 2 3 6 7 5 3 4 6 6 8 9 8 6 2 4 7 13 14 13 13 12 10 10 11 10 9 9 14 19 22 25 25 26 26 25 25 25 24 26 26 25 25 23 23 23 23 23 21 20 18 18 19 16 15 17 16 15 16 15 15 14 13 13 12 12 11 10 9 7 8
1 4 7 7 6 5 4 4 2 2 2 3 4 6 4 4 4 4 6 6 2 1 5 7 7 6 6 7 5 1 3 3 5 11 14 14 12 11 10 10 10 9 9 11 14 19 23 24 25 25 24 26 27 26 27 26 25 25 24 24 24 24 23 21 20 19 18 18 15 14 16 15 15 15 13 12 12 11 10 10 10 10 10 10 9 9
2 6 7 7 5 6 3 3 3 2 1 4 4 5 4 7 5 3 5 5 2 1 6 8 5 2 3 4 5 2 2 4 4 5 12 12 12 13 11 11 11 12 12 12 13 15 20 23 24 24 25 26 26 26 26 26 25 25 25 25 25 23 22 20 20 20 19 16 13 13 14 14 14 14 13 12 12 11 10 9 9 9 9 10 11 10
5 8 4 4 5 6 4 3 5 4 2 2 5 5 6 9 5 4 8 7 4 3 6 9 5 1 3 4 6 2 0 5 4 2 9 9 9 10 10 11 12 13 13 13 13 14 18 22 23 25 26 26 26 26 27 28 27 26 26 26 25 23 21 20 20 20 19 16 14 14 14 15 14 13 14 14 13 12 12 12 11 11 10 10 11 11
8 7 3 5 4 5 4 4 5 6 3 2 5 7 9 11 7 11 13 8 4 1 5 8 4 2 3 5 7 3 1 5 3 2 8 7 6 7 8 10 11 12 13 13 14 15 17 21 23 24 26 26 26 28 29 30 29 27 27 26 25 23 21 20 20 20 18 16 16 16 16 16 15 14 16 16 15 14 15 14 13 12 11 11 11 11
5 3 5 5 5 5 5 4 5 7 5 2 5 7 9 10 12 16 14 6 3 3 5 4 3 3 3 5 7 5 4 6 4 0 4 5 5 6 7 9 10 11 11 11 13 15 18 21 22 22 25 28 29 29 30 29 29 28 28 27 27 25 22 21 20 20 18 16 16 17 17 17 17 17 17 17 15 14 14 14 13 13 12 11 11 11
5 3 4 5 5 5 5 4 6 8 6 4 5 11 12 11 14 16 11 4 2 4 3 1 1 2 2 5 6 6 6 7 6 4 3 3 4 5 6 7 9 11 11 11 12 13 17 22 23 24 26 29 30 30 29 28 29 29 28 27 27 26 24 23 22 21 20 17 16 18 17 17 17 17 16 15 15 14 13 13 12 12 11 11 11 10
4 4 5 7 5 4 5 5 8 10 6 6 5 11 12 11 14 13 7 4 4 5 4 4 2 2 1 2 4 6 8 9 8 7 5 4 4 4 5 5 6 9 11 12 13 14 18 23 25 27 28 29 29 30 30 30 30 30 29 28 27 27 26 25 23 23 22 19 16 17 19 18 17 17 15 15 15 15 14 13 12 11 10 11 11 10
4 5 6 7 5 6 7 7 10 11 8 4 8 10 7 7 7 6 3 2 4 4 4 9 6 2 1 3 5 5 7 10 9 7 5 5 4 4 4 4 3 4 7 10 12 16 21 26 27 28 28 27 29 30 31 31 30 30 29 28 27 27 25 25 25 23 23 21 17 17 19 19 19 18 17 15 16 15 14 13 13 12 11 12 11 10
5 4 4 4 5 7 7 7 9 12 8 7 12 11 11 8 5 5 3 1 2 0 4 10 9 3 1 3 6 6 5 9 10 7 6 5 4 4 3 3 4 4 3 7 10 15 22 26 28 27 27 27 28 28 29 29 29 30 30 29 28 26 24 23 25 24 24 21 18 17 18 20 21 19 18 17 17 17 16 15 14 13 13 13 12 11
5 3 4 4 6 7 5 5 5 8 9 9 8 7 8 5 6 5 4 4 2 2 4 11 10 3 1 3 6 6 3 8 12 9 9 8 5 5 4 6 7 7 3 3 7 11 16 20 22 24 25 26 26 26 27 28 29 30 31 30 29 27 24 23 24 25 24 21 19 17 18 20 21 20 19 19 18 18 18 16 15 15 15 15 13 12
4 4 5 4 5 6 6 3 0 4 7 7 6 7 7 3 2 3 2 3 1 3 4 11 11 2 4 3 4 8 6 7 10 9 9 9 5 5 8 8 5 5 5 3 5 8 10 14 18 22 24 24 26 27 28 29 29 30 31 31 30 29 26 24 25 27 25 21 20 18 18 20 20 20 19 20 19 19 18 17 16 16 17 17 15 14
3 5 5 2 4 5 8 5 2 3 5 7 8 6 6 4 2 2 2 2 3 4 1 10 10 1 4 2 3 6 9 8 8 8 7 6 5 8 8 6 3 2 3 4 5 7 9 14 20 23 25 26 27 28 29 30 30 30 30 31 31 30 28 25 26 28 26 22 20 19 19 19 19 19 19 19 20 20 19 18 18 17 17 18 17 16
1 4 4 4 4 3 7 7 7 8 6 7 8 7 6 6 5 4 5 3 2 2 3 7 7 1 2 2 6 4 6 7 7 8 7 5 8 9 6 5 4 3 2 3 5 5 7 15 21 23 26 28 29 29 30 30 31 31 31 32 32 31 29 27 27 28 27 24 21 20 19 18 18 19 18 18 19 20 20 20 19 18 18 18 17 16
2 4 7 5 3 5 7 5 6 9 7 4 3 6 5 6 6 4 4 4 4 3 3 3 3 1 2 2 6 3 6 8 7 9 9 8 8 9 7 5 5 4 2 1 4 5 5 10 17 19 22 25 28 30 30 30 31 32 32 33 33 31 31 29 28 29 28 26 23 22 21 19 19 19 19 19 19 19 20 20 20 20 18 17 16 16
1 4 6 4 2 3 7 6 4 6 6 2 3 5 4 4 7 4 1 1 4 3 1 1 1 2 1 2 5 6 9 8 7 7 8 8 9 9 8 7 6 5 4 2 3 4 6 10 13 17 20 22 24 28 30 31 34 34 34 34 33 31 31 31 30 29 29 27 26 24 23 22 21 20 20 20 20 19 18 19 20 20 19 18 16 15
2 3 6 2 1 3 3 6 5 3 6 6 4 6 2 2 3 4 3 1 3 3 0 1 1 2 0 1 2 6 10 8 7 7 6 7 10 10 8 7 7 6 5 3 3 4 7 12 14 17 20 22 24 26 29 32 34 34 33 33 33 32 32 33 32 31 30 29 28 27 26 25 24 22 21 20 20 20 18 19 20 20 20 19 18 16
2 1 6 2 3 4 3 6 5 4 3 5 5 4 3 3 1 2 3 2 2 3 0 2 2 1 2 1 0 7 8 6 7 8 8 9 10 10 8 8 7 6 5 5 4 4 5 10 13 15 17 20 22 25 28 30 31 30 29 30 32 33 34 34 33 33 32 30 30 28 27 27 27 25 22 20 19 20 21 20 19 20 20 19 18 18
1 2 4 5 3 2 4 4 3 1 3 4 3 2 1 3 3 3 3 3 4 4 2 1 2 2 1 1 2 9 9 9 9 9 9 10 9 8 8 8 6 6 5 5 5 4 5 8 11 13 15 17 19 21 24 26 27 27 26 26 28 29 28 28 29 31 31 31 30 29 28 27 28 28 25 21 20 21 22 22 21 20 20 19 19 18
1 3 2 6 4 1 0 1 5 5 2 3 3 2 0 1 2 2 1 1 4 5 3 3 1 2 1 1 3 9 7 6 9 10 9 8 7 7 6 6 5 4 5 5 4 4 5 8 9 11 14 15 15 15 18 22 25 26 24 25 26 26 26 26 28 28 29 31 30 30 29 27 28 30 27 23 21 21 22 23 22 21 21 20 19 19
1 2 1 3 3 2 2 4 4 7 6 5 4 2 2 2 3 3 1 2 2 4 4 5 3 2 2 2 2 7 6 4 7 10 10 7 7 7 5 6 5 3 5 7 6 5 6 8 9 10 12 13 12 13 13 14 17 19 19 19 20 22 25 27 28 30 30 31 31 31 30 28 28 30 29 26 23 22 22 22 23 22 21 22 21 20
1 2 2 2 2 2 6 7 2 4 6 6 3 2 3 3 4 5 3 3 2 3 2 3 2 0 1 1 3 6 6 6 7 7 8 7 8 8 5 5 5 4 5 7 7 6 7 9 10 12 11 11 11 12 14 14 16 19 22 22 20 20 22 23 25 28 29 28 28 28 28 27 27 28 29 28 26 25 24 23 23 22 22 22 22 22
0 2 3 3 3 4 6 6 5 4 6 5 2 2 4 2 2 5 5 3 4 3 2 3 1 1 1 1 4 7 7 8 7 6 7 7 7 8 6 4 5 5 6 6 6 7 9 11 12 14 13 11 11 12 13 13 16 18 20 23 24 21 19 19 20 21 22 23 25 27 27 26 25 26 28 29 28 27 26 25 25 23 23 23 23 23
2 2 2 2 3 4 5 6 7 6 4 2 2 2 3 5 6 5 3 4 3 3 4 4 2 2 2 3 6 8 9 9 7 6 7 7 6 7 7 5 5 7 7 6 6 7 9 10 12 14 13 11 11 11 11 11 12 11 11 15 19 16 16 19 19 18 20 23 25 27 27 25 25 25 27 28 28 28 28 27 26 26 25 25 24 24
1 2 3 3 3 3 1 1 3 3 3 1 1 3 3 6 8 6 4 4 3 4 4 4 3 4 6 7 6 7 9 10 8 7 7 6 6 5 6 6 6 7 7 6 6 8 8 7 8 12 12 9 7 8 9 10 11 11 11 13 15 15 18 21 20 18 21 25 26 26 27 27 27 28 28 28 27 27 27 27 27 27 27 27 26 26
3 3 3 5 5 4 6 5 4 2 0 2 1 3 4 3 4 6 5 3 4 5 3 1 6 11 11 10 8 8 9 9 9 8 8 6 6 6 6 6 7 7 7 6 7 7 7 7 8 11 13 10 6 4 3 7 9 10 12 12 13 16 21 23 19 15 16 22 24 26 27 28 29 29 28 27 26 25 25 26 27 27 27 27 27 27
4 4 5 2 2 2 5 5 6 2 2 2 2 2 4 4 5 6 3 5 8 7 1 3 11 15 14 12 11 11 10 9 9 9 8 7 7 7 7 7 8 8 7 7 8 7 7 8 10 13 14 11 8 6 5 7 9 11 12 12 11 13 17 17 16 15 17 20 20 23 26 29 28 26 24 23 23 23 24 24 26 27 28 28 28 29
5 3 6 4 3 4 3 4 6 3 2 2 3 3 4 4 6 6 2 4 8 5 5 11 15 14 14 13 11 11 11 10 10 9 9 8 8 8 9 9 9 8 8 9 8 8 8 8 10 13 14 12 12 12 12 13 13 13 13 12 10 9 10 10 9 11 17 20 18 18 22 25 26 24 22 21 21 21 21 21 22 24 28 30 30 29
5 3 6 4 4 7 9 7 6 5 4 4 6 6 6 6 6 7 6 5 5 5 9 16 13 9 10 11 11 10 10 10 9 9 9 9 9 9 10 10 10 8 8 9 8 7 8 9 11 14 15 15 14 14 15 16 15 14 13 11 8 7 6 8 9 9 11 13 15 17 19 20 20 20 20 21 22 21 20 19 19 19 23 27 29 29
4 2 5 4 4 6 8 9 7 6 6 6 7 8 8 9 8 7 6 6 8 9 11 14 11 6 5 8 10 10 10 10 11 10 10 9 8 9 10 10 10 9 8 8 8 7 7 8 11 14 15 15 15 16 17 17 17 17 16 14 11 11 10 8 8 7 6 6 7 11 14 13 12 11 12 14 17 18 19 19 19 17 18 21 23 23
4 1 2 5 5 4 6 8 9 6 6 8 8 9 7 5 5 4 3 3 7 12 13 12 9 7 7 8 10 11 11 12 12 11 11 9 8 9 10 9 9 8 8 8 8 8 7 7 10 14 15 16 16 17 17 17 19 19 18 18 15 13 13 13 11 11 10 8 7 6 5 4 3 3 2 3 6 10 15 17 18 19 22 25 23 20
2 2 2 4 3 4 6 7 6 5 7 5 5 5 4 3 5 4 3 3 10 15 13 9 8 8 10 12 12 13 13 12 11 10 11 10 9 9 10 10 9 8 8 8 8 8 8 8 12 14 16 17 19 19 18 19 20 19 18 19 18 16 16 16 15 15 13 11 11 11 11 11 9 7 4 3 3 3 7 11 12 14 20 25 24 20
3 4 3 2 2 3 8 7 5 5 3 3 5 4 4 3 6 6 5 6 9 7 6 6 9 11 12 13 14 14 12 10 9 8 9 10 10 10 10 10 9 8 7 8 8 8 9 12 14 16 18 19 20 20 20 20 20 20 20 20 20 18 19 19 19 20 19 15 12 9 11 13 14 12 10 7 7 6 1 7 7 9 12 16 16 15
4 4 2 1 2 2 5 5 4 1 3 7 7 5 5 4 7 10 8 4 2 5 10 11 11 13 12 11 12 13 11 9 9 8 9 9 9 11 11 9 9 9 7 6 7 8 11 14 16 17 18 18 18 19 20 20 20 21 21 22 23 21 20 20 21 22 22 20 15 12 13 15 15 14 14 13 11 10 5 1 4 8 10 10 10 11
3 3 2 2 1 1 3 4 1 4 6 7 7 6 4 3 9 12 8 6 5 3 12 13 10 11 12 12 11 12 11 11 9 6 6 7 7 10 11 10 9 9 7 8 9 11 13 16 18 18 18 17 17 17 17 17 17 19 20 20 22 23 22 22 22 22 21 21 18 15 15 16 15 14 13 12 11 11 8 6 5 6 8 9 8 8
5 3 2 2 2 1 1 1 2 2 3 5 5 3 2 2 2 4 4 3 7 1 9 13 11 10 12 13 13 12 13 12 8 4 4 6 6 8 10 10 10 10 12 15 17 17 18 19 20 20 20 18 17 16 14 14 15 17 18 18 18 19 20 21 21 20 19 19 18 15 14 14 14 14 13 12 11 11 9 7 7 8 7 8 7 6
5 4 3 2 2 2 1 1 2 2 1 4 6 5 2 2 5 2 3 1 5 3 5 12 15 14 14 15 14 13 13 11 6 4 4 6 6 8 10 12 14 15 16 20 21 21 21 22 22 22 21 20 18 16 14 14 14 15 16 17 16 16 17 18 18 17 16 15 15 15 14 13 14 14 14 14 14 13 11 10 8 7 7 7 5 4
6 3 4 4 2 2 3 2 0 1 3 5 7 8 6 5 4 3 5 1 4 1 3 8 14 16 16 16 17 15 12 9 7 5 5 8 9 10 11 13 16 19 20 21 23 23 22 22 23 22 21 20 18 16 14 14 14 15 16 16 15 16 17 17 16 15 13 11 11 12 13 13 14 15 15 16 16 14 12 12 10 7 5 6 6 6
6 4 4 4 2 1 3 2 1 2 3 5 6 7 8 5 3 6 4 4 6 3 4 8 12 12 11 12 12 9 6 7 8 7 7 10 11 11 13 15 17 20 21 22 23 23 22 22 21 20 19 18 15 13 12 12 12 14 14 14 14 15 16 16 15 14 12 9 9 10 12 12 13 14 15 16 16 14 12 12 11 8 7 8 10 12
4 3 2 3 2 1 2 2 2 2 4 6 6 7 8 4 5 5 4 6 4 3 4 7 10 9 7 6 5 4 3 3 6 9 10 12 11 11 15 19 20 21 22 22 23 23 23 22 21 20 18 15 13 12 11 10 12 13 12 12 13 14 14 13 12 11 10 9 8 9 10 11 12 13 14 15 15 13 12 13 12 11 10 12 14 15
1 2 2 2 1 0 2 2 1 3 3 4 5 7 5 2 1 3 5 4 3 6 8 8 8 8 8 7 5 6 8 9 8 8 8 10 11 11 15 19 20 21 21 22 23 23 23 22 21 20 17 14 12 10 9 8 10 11 10 10 12 12 11 10 9 9 9 8 8 9 9 9 11 12 13 13 13 12 12 13 14 13 13 13 14 16
2 1 1 1 2 0 2 3 2 1 3 4 6 6 3 1 4 5 2 1 2 7 10 9 9 10 11 10 8 9 13 13 10 8 7 8 9 12 16 18 19 19 20 22 22 21 21 21 19 18 16 14 12 10 9 8 9 10 10 10 11 11 10 9 9 8 8 8 8 9 9 8 9 10 12 13 12 11 11 12 13 13 14 15 15 16
1 2 0 2 2 2 2 0 2 4 5 4 1 1 1 2 4 4 3 3 3 5 7 7 8 10 12 14 14 13 14 15 14 13 11 9 8 12 15 17 19 20 20 22 21 20 19 20 18 16 15 13 11 11 9 8 8 9 9 10 9 9 10 10 10 9 9 9 10 10 9 9 8 8 10 12 11 10 11 12 13 14 15 16 16 17
3 3 3 2 2 2 3 5 5 4 5 3 1 2 0 3 2 3 5 5 4 3 3 5 6 6 9 13 16 15 13 13 12 12 12 10 9 11 15 16 19 21 21 21 21 20 19 19 18 16 14 11 10 10 9 8 8 9 10 9 8 8 9 11 11 11 10 10 11 11 11 10 8 7 9 11 10 10 11 12 14 15 17 17 16 17
4 3 3 2 0 0 2 3 2 3 5 6 4 2 2 3 3 4 6 6 5 4 5 6 8 7 6 8 10 11 12 13 13 12 11 10 9 12 16 18 19 21 22 22 21 19 18 16 15 13 13 11 9 9 8 8 8 9 9 8 7 7 7 8 10 11 11 11 11 11 12 11 10 9 9 9 9 9 10 12 14 16 17 17 16 16
3 1 2 2 2 2 0 3 4 4 5 6 7 6 5 4 3 3 6 6 6 7 8 7 10 11 10 9 9 7 4 6 9 10 9 9 9 11 15 17 17 19 21 21 19 17 15 14 12 11 11 11 9 8 7 8 9 9 9 8 7 7 6 6 8 9 10 11 11 12 12 12 12 12 11 9 9 10 11 12 14 15 16 16 16 15
2 2 2 2 2 1 1 5 4 1 4 6 6 5 5 6 5 3 6 6 6 8 8 9 11 11 10 11 12 10 5 3 5 8 8 7 9 12 14 16 18 19 20 18 16 14 12 12 11 11 10 9 8 7 7 8 9 9 9 8 8 7 6 7 7 8 8 10 11 12 12 12 13 13 13 11 9 9 11 11 12 13 14 14 13 13
1 2 1 1 3 1 1 4 4 3 5 9 9 7 6 6 5 4 4 6 8 8 7 8 9 10 11 12 13 14 13 9 8 9 8 7 8 12 15 17 19 20 19 17 14 12 10 11 11 10 9 8 7 7 7 8 8 9 9 9 8 7 7 7 8 8 8 9 10 11 12 13 12 13 13 12 9 8 9 10 10 11 11 10 10 10
1 2 1 2 3 1 2 2 2 1 2 5 7 8 8 6 6 6 5 3 6 7 7 7 7 7 11 15 16 14 11 8 10 12 11 10 12 15 18 20 20 19 18 16 12 11 11 11 11 10 8 7 6 6 6 7 8 8 9 10 10 9 8 8 8 9 10 10 10 11 12 12 12 12 13 12 10 8 8 8 8 9 10 9 9 10
1 1 1 2 2 4 5 4 2 3 3 1 4 6 7 6 7 7 6 5 3 2 2 6 7 6 7 12 17 18 14 11 14 16 12 12 17 21 22 22 22 20 18 16 13 12 13 13 12 10 9 7 6 6 6 6 7 7 9 10 11 11 11 11 11 11 11 12 12 12 12 12 11 11 11 10 9 9 9 8 8 9 9 10 10 11
Wind_Direction
132 157 203 199 199 183 172 180 192 183 165 193 189 153 160 151 116 133 143 156 151 150 169 168 166 155 150 169 190 246 285 209 178 177 178 176 177 180 181 181 175 176 180 175 174 176 177 179 180 181 183 184 185 186 186 184 186 191 193 193 192 192 194 197 196 193 190 187 187 190 191 191 191 189 189 187 187 187 186 188 190 191 192 192 196 203
101 181 220 217 200 177 169 191 200 184 143 194 172 137 130 128 104 96 120 148 163 149 135 135 154 153 146 164 182 211 252 211 182 181 182 180 181 181 181 180 174 174 174 168 170 173 175 177 178 179 180 181 182 185 186 185 187 190 191 190 191 193 195 200 200 197 193 189 187 188 188 189 190 188 189 187 187 186 184 188 193 194 195 195 199 206
72 227 231 225 194 140 157 197 157 120 103 82 126 132 121 137 112 75 102 133 192 164 129 141 153 147 131 155 184 219 264 254 203 191 186 180 180 183 181 176 171 168 165 165 166 169 173 175 176 176 178 181 184 186 187 188 188 189 189 188 190 194 196 201 203 199 194 191 190 191 189 186 186 187 188 188 189 190 188 193 199 199 199 198 203 210
207 242 233 219 171 127 174 207 112 116 132 90 136 141 145 172 149 118 146 127 55 76 140 145 135 117 106 142 190 210 290 294 303 207 188 182 181 184 182 172 169 167 165 166 166 167 170 171 173 175 178 181 183 184 187 188 188 189 189 187 190 194 196 200 202 199 194 188 186 187 185 184 187 189 188 192 196 197 198 203 209 211 207 206 210 218
237 252 219 156 153 149 181 194 128 148 224 179 180 162 159 182 165 118 144 128 68 66 133 134 109 152 157 174 204 178 267 280 319 160 179 186 188 184 177 170 170 167 164 165 167 168 168 169 174 177 178 179 180 184 188 189 189 190 190 189 190 193 195 199 199 195 189 183 181 180 180 182 187 190 192 198 203 206 212 213 213 215 214 211 213 220
258 256 157 135 165 155 166 199 168 166 190 244 218 194 175 173 135 119 137 132 96 119 173 154 141 201 185 199 209 159 185 262 320 119 165 172 183 182 171 172 173 167 164 164 167 169 168 170 174 177 178 176 179 186 190 191 191 192 193 191 192 192 192 194 192 189 186 183 184 184 182 182 184 188 194 200 201 204 211 213 212 213 213 211 212 217
262 235 142 169 190 161 168 208 200 162 144 253 228 178 164 155 133 138 150 146 127 176 199 183 149 161 198 222 204 165 205 249 291 212 165 155 169 182 176 174 173 167 162 163 167 167 168 171 172 176 179 177 180 188 191 192 191 193 195 193 194 193 190 188 186 187 187 188 194 193 188 186 186 189 195 201 202 201 205 207 209 210 209 209 211 214
242 223 153 176 186 178 186 208 199 153 136 241 205 148 153 155 144 149 155 150 140 117 119 197 55 115 204 224 182 161 196 236 265 249 191 166 172 176 175 175 177 171 160 161 168 168 170 172 173 177 181 180 182 186 189 191 191 194 197 195 196 196 194 191 188 190 192 196 202 201 197 194 193 195 197 200 204 204 205 205 207 208 207 207 209 212
224 214 198 184 184 200 205 199 177 156 173 240 173 143 158 156 147 150 147 145 146 114 126 212 210 113 221 206 136 156 192 214 234 229 200 184 183 171 162 164 182 176 161 162 170 172 173 175 178 180 181 182 182 184 188 190 192 195 197 198 198 199 201 200 197 198 200 203 206 203 202 201 199 202 203 202 204 207 208 208 207 208 208 206 205 209
230 209 197 176 180 208 217 203 168 171 212 218 115 101 90 101 117 121 113 132 132 114 173 200 189 140 219 206 155 172 204 206 214 221 201 183 177 168 156 142 142 159 162 166 171 173 175 178 180 180 179 180 182 184 187 188 191 193 196 199 200 202 204 204 204 205 205 208 211 206 204 204 202 204 205 203 205 208 209 210 209 210 211 206 203 207
258 228 190 178 195 203 208 197 175 182 189 119 102 86 65 54 33 37 15 6 98 112 207 187 181 154 189 219 190 190 199 186 188 203 196 181 170 168 158 119 86 67 152 173 171 175 178 179 180 179 178 179 181 183 184 186 189 191 195 199 201 203 205 204 206 208 207 211 217 216 214 211 206 204 203 203 205 207 208 209 210 212 212 207 206 212
295 249 207 223 214 191 180 190 186 180 162 119 112 114 85 37 12 33 350 349 90 250 227 179 170 150 240 236 208 206 182 165 178 189 188 185 183 163 104 63 58 47 42 167 172 175 176 176 176 176 178 179 178 180 182 185 188 190 194 197 199 203 204 204 206 207 209 213 219 225 225 217 211 208 207 207 209 210 210 210 210 211 210 209 212 220
303 243 235 251 226 183 159 182 186 155 157 128 126 129 104 61 22 63 323 317 199 255 233 172 158 154 247 248 219 201 182 175 181 173 178 189 177 117 83 70 65 63 64 94 164 175 173 173 175 177 178 178 178 180 183 185 186 189 192 195 198 201 203 204 206 205 209 215 220 225 224 217 213 212 212 214 215 215 215 213 211 209 208 209 214 221
323 291 278 237 238 191 153 164 155 155 167 141 142 144 117 116 115 131 231 271 253 275 224 158 154 202 258 299 317 212 178 173 171 154 168 180 120 93 95 104 119 129 118 115 146 172 178 178 178 178 178 179 181 183 183 185 187 188 190 194 197 200 201 203 205 205 209 216 219 220 219 217 215 215 216 217 219 220 220 219 217 215 211 210 214 218
146 294 265 191 223 190 157 180 169 150 163 163 155 143 137 150 146 164 197 201 222 251 82 136 155 230 246 302 321 274 159 142 144 137 136 120 102 103 111 131 146 158 166 112 118 147 181 185 183 180 180 182 183 184 184 186 187 188 190 194 197 199 199 201 204 207 211 215 215 215 216 216 215 215 216 218 220 223 224 224 224 221 217 215 217 218
156 251 251 242 239 162 156 190 153 129 150 191 143 119 151 177 151 149 188 170 156 137 88 136 183 252 217 272 330 357 104 113 122 122 122 117 113 116 119 140 164 164 181 117 112 123 152 177 184 185 184 185 185 185 186 187 188 189 192 194 197 199 200 201 203 207 212 215 215 214 215 216 214 214 218 221 224 227 229 229 228 226 222 221 222 222
105 260 274 313 327 170 169 173 134 131 154 157 128 157 192 173 132 123 156 120 99 103 101 219 273 306 269 342 6 55 84 89 100 111 122 125 122 126 138 158 172 168 174 175 139 140 134 141 165 183 188 189 188 187 188 190 191 193 194 194 196 199 201 201 204 206 210 214 216 216 216 216 215 216 222 226 227 230 232 231 231 230 227 225 227 228
148 266 295 355 39 269 203 127 86 89 130 127 168 191 181 71 95 104 112 83 64 88 330 332 307 287 251 351 9 69 73 65 74 91 108 128 135 143 155 164 164 160 163 161 154 170 147 133 148 172 185 190 191 192 193 194 195 195 195 195 195 198 200 202 204 206 209 212 215 217 218 218 217 219 225 230 232 232 230 230 232 232 230 230 231 232
121 288 299 283 185 276 342 84 73 16 75 122 160 166 112 115 167 130 135 150 107 115 212 355 331 287 143 201 69 97 104 108 110 116 125 139 147 152 160 160 153 144 147 161 172 184 156 138 144 157 170 183 190 195 198 198 197 197 197 198 198 200 203 203 204 205 208 211 214 216 219 220 219 221 225 229 234 234 231 230 232 233 234 235 235 234
91 112 284 284 234 272 3 66 120 306 5 63 82 58 66 144 160 159 154 151 132 142 165 63 328 282 184 245 114 119 138 151 142 135 132 138 145 148 153 149 138 134 143 164 176 178 160 149 148 145 149 164 178 191 198 199 199 198 197 199 200 202 204 203 204 205 207 210 213 216 219 219 218 219 223 227 231 234 233 233 233 234 236 238 239 239
20 98 222 295 320 42 10 169 167 173 144 73 63 46 4 96 120 123 80 88 124 138 152 133 224 265 299 295 137 125 131 136 134 130 121 122 125 121 125 122 116 124 129 139 156 158 158 160 158 146 143 150 158 170 185 194 198 198 199 200 200 202 203 204 206 207 208 211 213 216 218 218 217 216 220 224 228 232 233 233 234 235 238 240 240 242
21 82 167 301 356 78 253 262 183 168 158 139 134 154 172 149 114 100 53 311 100 119 152 152 175 257 347 332 136 121 114 99 110 118 110 97 96 98 100 107 107 117 128 132 134 132 138 145 143 139 145 151 143 138 149 166 180 186 193 200 202 203 204 206 207 209 211 213 213 216 219 219 218 216 218 222 225 230 231 232 233 236 240 242 241 241
165 90 72 282 251 213 262 281 262 155 132 118 119 137 145 137 120 125 173 225 84 82 96 99 113 258 346 332 121 109 108 99 92 98 98 93 94 96 99 111 115 118 122 122 122 118 111 111 115 121 133 142 137 134 133 137 157 174 187 199 205 208 209 210 210 211 212 212 213 216 220 222 222 220 220 222 226 230 231 232 234 236 239 242 244 243
144 70 38 315 300 304 296 308 343 27 80 84 33 76 124 132 126 140 162 156 123 132 117 73 67 195 178 150 123 118 116 111 108 104 101 104 106 108 114 119 113 107 99 96 105 110 102 97 98 99 107 122 132 140 139 145 164 170 178 194 202 204 205 207 210 212 211 212 214 216 218 222 225 225 226 226 228 231 233 235 236 236 239 242 245 246
347 56 59 33 16 356 344 350 351 354 31 63 319 344 97 109 107 114 109 79 107 178 151 124 163 186 156 157 137 133 131 123 126 130 119 117 118 117 118 109 99 99 96 91 94 97 95 95 99 104 116 134 144 149 148 151 159 148 149 185 195 193 195 200 204 207 208 212 216 218 217 218 222 227 230 231 232 233 236 238 238 239 240 241 244 247
54 77 85 105 119 141 170 321 315 308 326 328 326 11 58 113 122 125 111 84 126 178 139 127 154 134 138 156 148 142 138 130 134 136 123 119 121 119 113 107 102 98 97 93 87 88 91 95 106 115 122 132 147 160 152 134 131 137 157 182 187 188 200 205 201 199 208 216 219 219 218 217 218 222 226 230 233 236 238 240 240 241 242 242 242 244
107 62 65 130 143 165 185 226 262 239 26 345 15 54 62 104 110 105 111 132 160 147 96 100 150 140 150 164 154 146 142 135 137 132 122 120 118 111 106 104 101 97 95 90 83 84 88 87 89 100 112 123 140 165 148 108 111 134 157 167 174 189 206 209 199 189 204 218 221 220 219 219 219 218 219 223 228 234 238 241 242 242 244 244 243 244
101 33 7 89 122 171 193 246 293 335 81 7 331 98 105 110 105 103 135 175 150 130 109 195 155 147 159 170 159 152 148 139 137 133 127 125 117 111 106 99 95 96 95 89 83 80 80 84 89 97 111 125 123 111 105 107 116 128 136 141 159 187 206 212 204 197 207 218 226 228 225 225 224 218 215 218 223 228 233 238 243 245 246 246 246 247
106 37 353 359 359 7 12 326 328 17 83 31 15 55 76 89 118 121 126 156 146 145 174 170 163 159 161 163 156 151 147 140 137 134 128 122 116 110 104 97 90 86 88 90 86 82 79 80 86 93 100 102 97 95 94 94 101 109 115 126 144 169 194 206 202 199 210 221 236 242 237 234 233 228 223 224 226 228 229 232 240 247 248 247 247 249
104 25 350 0 0 359 2 352 0 38 50 33 27 35 56 71 96 104 92 87 89 95 137 147 151 155 152 153 149 141 140 136 130 128 124 120 119 115 106 102 97 88 86 88 82 77 79 77 78 83 87 86 84 85 85 85 88 92 97 107 112 114 146 188 198 197 206 221 240 249 245 239 237 237 235 235 235 236 233 232 232 239 247 247 245 246
80 6 331 23 35 347 347 351 359 31 57 48 27 25 51 71 72 81 98 95 79 86 113 124 124 130 146 146 137 131 133 133 132 132 126 123 127 124 115 110 107 101 94 90 83 78 77 78 78 77 78 80 79 77 79 81 83 86 88 88 80 73 85 119 148 150 154 178 213 232 238 240 241 247 253 254 254 252 247 242 237 236 247 250 241 236
60 91 327 46 49 321 328 346 341 3 48 41 18 5 16 57 83 92 102 112 120 121 120 120 129 155 166 148 134 134 140 141 142 139 133 132 137 128 119 114 111 111 107 99 91 84 76 74 78 78 78 81 81 78 77 79 80 81 83 84 80 73 74 83 90 91 93 94 93 109 129 143 175 204 245 275 288 279 262 255 253 251 254 256 250 238
47 83 38 53 60 294 308 332 338 12 37 13 332 322 341 52 103 107 64 104 140 139 140 153 163 159 155 149 143 145 148 147 147 145 139 139 137 128 121 117 112 111 109 103 97 91 82 76 78 82 84 85 85 83 81 81 81 81 81 84 85 83 78 75 74 72 70 65 58 64 72 74 83 93 98 106 60 355 266 250 254 254 250 252 253 248
19 79 100 81 96 280 304 329 13 49 51 267 263 262 250 195 132 116 106 131 146 136 118 133 140 141 149 153 148 147 148 146 144 143 139 139 137 132 125 120 117 114 107 101 97 91 85 82 84 88 90 92 92 90 86 84 85 85 84 82 82 82 80 75 71 67 66 67 62 54 52 54 59 63 57 55 62 59 242 237 248 252 247 245 248 251
33 61 116 88 78 263 313 4 53 101 232 255 282 297 268 212 126 103 83 75 104 106 103 110 128 141 146 143 138 137 137 133 129 131 135 139 139 134 129 125 121 117 110 103 97 92 89 92 96 95 94 94 96 94 89 86 86 84 81 77 74 74 74 72 69 65 65 66 64 56 51 51 54 58 56 53 55 58 58 301 283 275 268 263 256 257
87 78 122 88 42 319 358 40 126 226 258 293 317 331 342 45 98 100 75 7 337 120 126 122 126 135 130 126 128 128 125 121 111 110 130 137 136 134 134 133 128 122 118 110 102 98 97 99 103 102 97 95 98 98 93 87 83 80 76 72 68 66 65 65 63 61 61 62 60 53 47 48 52 56 57 55 53 51 48 38 20 342 304 294 290 282
109 106 72 49 59 66 7 315 272 279 311 320 323 334 5 14 143 130 108 345 326 1 131 127 121 123 124 124 125 124 121 116 103 90 117 127 132 132 128 124 121 119 115 110 105 102 100 102 106 106 102 97 96 100 100 92 82 76 72 68 65 62 60 57 54 52 54 56 55 50 43 42 47 48 48 48 47 45 41 37 36 26 356 320 303 301
73 101 113 101 88 92 88 327 347 16 301 266 270 285 317 267 261 268 91 17 326 358 122 133 131 132 132 130 131 131 125 120 128 152 145 136 137 127 115 111 110 111 111 110 108 103 99 100 103 104 103 98 92 95 102 99 89 79 70 64 61 60 57 51 46 44 46 47 47 46 43 41 42 40 37 36 36 36 35 33 34 35 19 349 326 335
34 50 95 91 59 70 103 106 216 213 232 254 271 294 316 308 296 44 80 338 284 278 142 142 140 142 144 144 145 144 138 139 158 170 156 148 143 131 121 115 111 110 109 109 108 103 100 101 101 99 98 93 87 89 97 98 92 82 70 61 59 57 51 45 41 39 38 38 38 38 37 36 37 36 33 30 27 27 29 29 34 46 40 16 13 27
17 11 47 70 62 87 111 122 217 219 255 278 283 297 308 320 45 85 109 239 253 222 173 155 145 142 142 140 141 143 148 162 163 159 150 142 132 124 123 121 117 115 111 109 108 105 103 102 99 94 89 83 81 85 91 95 90 79 67 61 59 52 43 38 37 39 42 44 42 36 28 23 24 27 28 25 22 25 30 30 34 54 67 55 52 51
7 11 53 101 116 95 115 141 254 252 261 276 287 295 303 340 63 96 190 222 215 154 142 143 139 132 117 104 105 102 67 80 122 134 138 132 120 113 115 115 114 113 111 111 110 106 102 98 94 89 84 80 81 82 83 89 85 72 63 58 52 42 33 29 32 40 48 51 44 36 29 23 18 18 22 23 22 27 38 40 42 56 67 59 51 47
8 12 22 88 106 19 112 117 315 277 252 277 301 306 318 13 107 209 214 207 165 135 129 125 125 119 101 82 87 109 97 83 90 109 121 124 122 119 116 112 109 109 109 110 110 108 104 98 94 91 85 80 79 74 68 75 71 59 54 51 43 31 20 16 20 27 36 40 34 28 28 27 18 11 11 17 21 26 37 45 49 54 55 47 39 36
155 125 333 250 196 95 57 63 50 236 249 305 329 334 5 91 214 217 175 76 130 141 137 137 140 137 126 118 124 129 120 116 121 124 120 123 125 121 118 116 112 110 110 109 109 110 108 101 94 90 85 78 73 66 56 54 52 45 43 41 33 20 8 1 360 2 9 16 18 19 20 21 18 10 4 8 17 20 23 31 38 40 38 34 29 29
158 145 185 242 203 116 79 126 199 220 253 287 314 226 246 239 218 188 121 78 94 126 137 148 152 152 146 140 138 137 135 138 145 145 140 140 133 121 118 117 114 113 113 112 112 113 112 106 99 92 87 79 72 67 59 52 49 43 36 29 20 13 7 359 351 348 350 355 360 4 7 8 10 8 360 1 10 17 18 20 24 26 25 24 24 25
246 210 160 171 189 150 177 218 228 245 277 302 128 164 258 359 25 105 107 93 81 90 116 130 132 139 143 142 140 140 142 146 147 143 139 139 134 125 123 122 120 118 117 116 118 117 114 110 106 99 93 85 77 73 66 60 57 47 34 25 16 9 6 3 359 352 346 345 349 351 353 356 1 4 358 355 357 5 12 14 13 14 13 14 17 20
252 221 143 126 304 123 190 235 290 336 335 345 359 11 43 45 42 70 90 92 91 93 100 110 114 110 107 119 131 139 147 149 146 141 137 135 133 130 127 125 124 124 123 121 121 120 116 112 106 101 97 89 84 80 69 56 49 40 29 23 18 13 7 2 1 359 353 349 346 345 345 348 352 356 356 351 346 349 357 0 2 4 5 7 11 15
305 66 98 68 37 74 94 307 332 358 356 353 352 353 17 38 41 78 102 111 115 112 110 113 114 107 94 86 86 84 94 123 129 131 133 131 131 132 130 128 129 128 127 125 124 123 119 111 104 103 100 91 82 74 56 36 24 17 10 4 4 8 6 358 356 356 354 352 349 346 345 346 348 351 351 345 339 338 338 342 350 356 1 4 7 12
323 29 51 39 39 105 245 292 304 358 33 23 20 8 3 2 359 47 104 116 113 110 115 120 121 120 120 120 121 121 122 134 136 135 133 130 134 138 135 133 133 131 129 129 129 124 116 107 104 104 98 86 69 50 33 22 17 12 4 357 352 349 345 349 354 355 353 353 352 349 347 346 347 350 351 347 337 331 331 337 346 354 0 5 7 10
291 347 353 61 27 19 318 326 337 30 31 17 14 7 356 350 348 8 77 108 110 108 111 117 126 138 143 143 145 149 155 165 164 148 137 134 139 142 140 137 135 135 135 134 132 126 116 111 112 109 98 81 63 41 31 32 33 28 22 16 8 357 350 353 358 358 356 353 348 344 343 342 343 347 350 351 347 334 331 339 349 352 355 0 1 2
13 343 330 69 35 306 256 298 314 127 67 6 358 354 350 359 20 20 20 76 114 125 128 117 110 125 141 147 151 150 148 160 161 150 145 150 152 149 146 142 140 142 143 140 133 127 122 122 124 121 107 89 70 55 49 47 42 33 26 22 18 16 13 10 6 2 359 356 351 345 340 338 338 341 343 346 348 339 329 335 345 346 345 344 341 343
94 174 172 115 147 226 233 237 209 137 120 338 338 352 352 6 39 41 21 10 19 27 119 129 125 125 142 156 159 155 150 160 164 156 149 156 159 154 151 152 153 152 150 146 140 135 133 135 139 136 125 110 93 78 71 60 45 33 22 16 14 14 13 12 10 6 3 3 2 358 353 345 341 341 340 339 341 339 333 333 337 333 328 327 328 332